Content
SEND FEEDBACK

Daily
Averages
Monthly
Summary
United States of America

KOKOMO, INDIANA


Home > North America > United States > Indiana
Elevation: 252 meters     Latitude: 40 31N     Longitude: 086 03W

WEATHER
 
SELECT A DAY
Number of Records: 263,419;   Date Range: 9/23/02 - 8/12/14
 
SHARE

PRINT THIS DATA

[ ← Previous Day ]
WEATHER ALMANAC - 5 FEBRUARY, 2013
[ Next Day → ]
[ °F ]   °C
Weather ElementAverageHighLow
Temperature-2.6 °C1 °C (1:55 pm)-9 °C (7:15 am)
Dewpoint-4.8 °C-1 °C (5:55 pm)-10 °C (6:35 am)
Humidity85.2 %100 % (4:15 am)69 % (12:15 pm)
Barometer1012.5 hPa1017.6 hPa (11:55 pm)1009.5 hPa (1:35 pm)
Wind Speed13.5 km/h29.6 km/h (2:35 pm)
Wind Gust33.3 km/h (2:15 pm)
Weather ElementAverage
Visibility9.3 km
Wind DirectionS (179.4 °)

Weather ElementTotal
Precipitation---
Heating Degree Days22.3 (Base 18.3)
Averaged from 71 records on 5 February, 2013
WEATHER CONDITIONS BREAKOUT
WIND DIRECTION BREAKOUT
WEATHER BY HOUR - 5 FEBRUARY, 2013
[ °F ]   °C
Local TimeTemperatureDewpointHumidityBarometerVisibilityWind DirectionWind SpeedGust SpeedPrecipitationEventsConditions
12:35 AM-4 °C-7 °C80 %1012.9 hPa9.7 kmCalmPartly Cloudy
12:55 AM-5 °C-7 °C86 %1012.9 hPa8 kmCalmClear
1:15 AM-6 °C-7 °C93 %1013.2 hPa8 kmCalmClear
1:35 AM-6 °C-8 °C86 %1012.9 hPa8 kmCalmClear
1:55 AM-6 °C-7 °C93 %1012.5 hPa6.4 kmCalmClear
2:15 AM-7 °C-8 °C93 %1012.9 hPa6.4 kmCalmClear
2:35 AM-7 °C-8 °C93 %1012.9 hPa4.8 kmCalmClear
2:55 AM-7 °C-8 °C93 %1012.5 hPa6.4 kmCalmClear
3:15 AM-7 °C-8 °C93 %1012.5 hPa6.4 kmNorth (360°)5.6 km/hClear
3:35 AM-6 °C-7 °C93 %1012.5 hPa6.4 kmCalmClear
3:55 AM-6 °C-7 °C93 %1012.5 hPa6.4 kmCalmClear
4:15 AM-6 °C-6 °C100 %1012.9 hPa6.4 kmCalmClear
4:35 AM-6 °C-7 °C93 %1012.2 hPa6.4 kmCalmClear
4:55 AM-6 °C-8 °C86 %1012.5 hPa4.8 kmCalmClear
5:15 AM-7 °C-7 °C100 %1012.9 hPa4.8 kmCalmClear
5:35 AM-7 °C-8 °C93 %1012.5 hPa4.8 kmCalmClear
5:55 AM-7 °C-8 °C93 %1012.9 hPa4 kmCalmClear
6:15 AM-8 °C-9 °C93 %1012.5 hPa4 kmCalmClear
6:35 AM-8 °C-10 °C86 %1013.2 hPa4 kmCalmClear
6:55 AM-8 °C-8 °C100 %1013.2 hPa1.6 kmCalmClear
7:15 AM-9 °C-9 °C100 %1012.9 hPa2.9 kmSouth (170°)5.6 km/hClear
7:35 AM-7 °C-7 °C100 %1013.2 hPa3.2 kmSouth (170°)5.6 km/hClear
7:55 AM-8 °C-8 °C100 %1013.2 hPa4 kmCalmClear
8:15 AM-6 °C-6 °C100 %1013.2 hPa4 kmSSE (150°)5.6 km/hMostly Cloudy
8:35 AM-5 °C-6 °C93 %1013.2 hPa4 kmSouth (170°)7.4 km/hMostly Cloudy
8:55 AM-4 °C-6 °C86 %1013.5 hPa4.8 kmSouth (190°)9.3 km/hScattered Clouds
9:15 AM-4 °C-6 °C86 %1013.9 hPa6.4 kmSSW (210°)13 km/hMostly Cloudy
9:35 AM-4 °C-7 °C80 %1013.2 hPa8 kmSouth (180°)13 km/hScattered Clouds
9:55 AM-3 °C-6 °C80 %1012.9 hPa9.7 kmSouth (180°)13 km/hPartly Cloudy
10:15 AM-3 °C-6 °C80 %1012.5 hPa11.3 kmSouth (180°)18.5 km/hPartly Cloudy
10:35 AM-3 °C-6 °C80 %1012.5 hPa14.5 kmSouth (190°)18.5 km/hPartly Cloudy
10:55 AM-3 °C-6 °C80 %1012.2 hPa12.9 kmSouth (190°)18.5 km/hPartly Cloudy
11:15 AM-2 °C-6 °C74 %1011.5 hPa16.1 kmSSW (200°)20.4 km/hScattered Clouds
11:35 AM-2 °C-6 °C74 %1011.5 hPa14.5 kmSSW (200°)25.9 km/hScattered Clouds
11:55 AM-2 °C-6 °C74 %1010.8 hPa16.1 kmSSW (200°)25.9 km/hMostly Cloudy
12:15 PM-1 °C-6 °C69 %1010.5 hPa16.1 kmSouth (190°)20.4 km/hOvercast
12:35 PM-1 °C-4 °C80 %1010.5 hPa16.1 kmSSW (200°)16.7 km/hOvercast
12:55 PM-1 °C-4 °C80 %1010.5 hPa14.5 kmSSW (200°)16.7 km/hMostly Cloudy
1:15 PM0 °C-4 °C75 %1009.8 hPa12.9 kmSSW (210°)20.4 km/hPartly Cloudy
1:35 PM0 °C-4 °C75 %1009.5 hPa12.9 kmSSW (210°)18.5 km/hPartly Cloudy
1:55 PM1 °C-4 °C70 %1009.5 hPa12.9 kmSW (230°)18.5 km/hPartly Cloudy
2:15 PM1 °C-3 °C75 %1009.5 hPa16.1 kmSW (230°)27.8 km/h33.3 km/hClear
2:35 PM1 °C-3 °C75 %1009.8 hPa16.1 kmSW (230°)29.6 km/hScattered Clouds
2:55 PM1 °C-3 °C75 %1009.8 hPa14.5 kmWSW (240°)24.1 km/hPartly Cloudy
3:15 PM1 °C-3 °C75 %1009.8 hPa14.5 kmSW (230°)25.9 km/hScattered Clouds
3:35 PM1 °C-3 °C75 %1010.5 hPa16.1 kmWest (260°)20.4 km/h33.3 km/hMostly Cloudy
3:55 PM1 °C-3 °C75 %1010.5 hPa16.1 kmWest (260°)22.2 km/hOvercast
4:15 PM1 °C-3 °C75 %1010.8 hPa12.9 kmWest (260°)18.5 km/hOvercast
4:35 PM1 °C-2 °C81 %1010.8 hPa16.1 kmWest (270°)18.5 km/hOvercast
4:55 PM1 °C-2 °C81 %1011.2 hPa16.1 kmWest (260°)16.7 km/hOvercast
5:15 PM1 °C-2 °C81 %1011.5 hPa12.9 kmWest (270°)14.8 km/hOvercast
5:35 PM1 °C-2 °C81 %1011.5 hPa12.9 kmWest (270°)16.7 km/hOvercast
5:55 PM1 °C-1 °C87 %1011.9 hPa11.3 kmWest (280°)18.5 km/hOvercast
6:15 PM1 °C-1 °C87 %1012.5 hPa8 kmWNW (290°)18.5 km/hOvercast
6:35 PM1 °C-1 °C87 %1012.5 hPa8 kmWNW (290°)22.2 km/hOvercast
6:55 PM1 °C-1 °C87 %1012.9 hPa8 kmWNW (300°)24.1 km/hOvercast
7:15 PM1 °C-2 °C81 %1013.2 hPa9.7 kmWNW (300°)24.1 km/hOvercast
7:35 PM1 °C-1 °C87 %1013.2 hPa9.7 kmWNW (290°)20.4 km/hOvercast
7:55 PM1 °C-1 °C87 %1013.9 hPa8 kmWNW (290°)20.4 km/h29.6 km/hOvercast
8:15 PM1 °C-2 °C81 %1014.2 hPa8 kmWNW (290°)18.5 km/hOvercast
8:35 PM1 °C-1 °C87 %1014.6 hPa8 kmWNW (300°)20.4 km/hOvercast
8:55 PM1 °C-2 °C81 %1014.6 hPa8 kmNW (320°)22.2 km/hOvercast
9:15 PM0 °C-2 °C87 %1014.9 hPa8 kmWNW (300°)24.1 km/hOvercast
9:35 PM0 °C-3 °C80 %1015.2 hPa8 kmNW (310°)29.6 km/hOvercast
9:55 PM0 °C-2 °C87 %1015.6 hPa9.7 kmNW (320°)22.2 km/hOvercast
10:15 PM0 °C-2 °C87 %1015.9 hPa11.3 kmNW (310°)22.2 km/hOvercast
10:35 PM-1 °C-3 °C86 %1015.9 hPa9.7 kmNW (320°)24.1 km/h31.5 km/hOvercast
10:55 PM-1 °C-3 °C86 %1016.6 hPa8 kmWNW (300°)22.2 km/hOvercast
11:15 PM-1 °C-2 °C93 %1016.6 hPa8 kmNW (310°)18.5 km/hOvercast
11:35 PM-1 °C-3 °C86 %1017.3 hPa8 kmNW (320°)16.7 km/hOvercast
11:55 PM-1 °C-4 °C80 %1017.6 hPa8 kmNNW (340°)16.7 km/hOvercast
Hourly data recorded from KOKK, located 0 kilometers away from Kokomo, Indiana







STORIES FROM OUR PARTNERS